Time,TemperatureF,DewpointF,PressureIn,WindDirection,WindDirectionDegrees,WindSpeedMPH,WindSpeedGustMPH,Humidity,HourlyPrecipIn,Conditions,Clouds,dailyrainin,SoftwareType,DateUTC
2013-05-25 00:02:00,39.0,37.0,-100.00,West,270,4.0,7.0,93,-99.99,,,-99.99,,2013-05-25 04:02:00,
2013-05-25 00:12:00,39.0,38.0,-100.00,West,260,7.0,7.0,93,-99.99,,,-99.99,,2013-05-25 04:12:00,
2013-05-25 00:23:00,40.0,37.0,-100.00,West,260,4.0,7.0,91,-99.99,,,-99.99,,2013-05-25 04:23:00,
2013-05-25 00:32:00,40.0,37.0,-100.00,West,260,2.0,4.0,89,-99.99,,,-99.99,,2013-05-25 04:32:00,
2013-05-25 00:43:00,40.0,38.0,-100.00,West,280,4.0,4.0,91,-99.99,,,-99.99,,2013-05-25 04:43:00,
2013-05-25 00:52:00,40.0,38.0,-100.00,West,280,4.0,4.0,91,-99.99,,,-99.99,,2013-05-25 04:52:00,
2013-05-25 01:02:00,40.0,38.0,-100.00,WNW,300,4.0,4.0,91,-99.99,,,-99.99,,2013-05-25 05:02:00,
2013-05-25 01:11:00,40.0,38.0,-100.00,West,280,4.0,7.0,93,-99.99,,,-99.99,,2013-05-25 05:11:00,
2013-05-25 01:22:00,40.0,38.0,-100.00,WSW,250,7.0,7.0,91,-99.99,,,-99.99,,2013-05-25 05:22:00,
2013-05-25 01:32:00,40.0,38.0,-100.00,WSW,250,2.0,4.0,91,-99.99,,,-99.99,,2013-05-25 05:32:00,
2013-05-25 01:42:00,40.0,38.0,-100.00,SW,220,2.0,2.0,93,-99.99,,,-99.99,,2013-05-25 05:42:00,
2013-05-25 01:52:00,39.0,38.0,-100.00,SW,230,2.0,2.0,94,-99.99,,,-99.99,,2013-05-25 05:52:00,
2013-05-25 02:01:00,39.0,38.0,-100.00,SW,230,2.0,2.0,94,-99.99,,,-99.99,,2013-05-25 06:01:00,
2013-05-25 02:11:00,39.0,38.0,-100.00,WSW,250,2.0,2.0,95,-99.99,,,-99.99,,2013-05-25 06:11:00,
2013-05-25 02:21:00,39.0,38.0,-100.00,WSW,240,2.0,4.0,95,-99.99,,,-99.99,,2013-05-25 06:21:00,
2013-05-25 02:32:00,39.0,38.0,-100.00,WSW,250,2.0,2.0,96,-99.99,,,-99.99,,2013-05-25 06:32:00,
2013-05-25 02:41:00,39.0,38.0,-100.00,WSW,240,2.0,4.0,97,-99.99,,,-99.99,,2013-05-25 06:41:00,
2013-05-25 02:51:00,39.0,38.0,-100.00,West,260,2.0,2.0,96,-99.99,,,-99.99,,2013-05-25 06:51:00,
2013-05-25 03:01:00,39.0,39.0,-100.00,West,260,2.0,2.0,98,-99.99,,,-99.99,,2013-05-25 07:01:00,
2013-05-25 03:11:00,39.0,39.0,-100.00,WSW,240,2.0,2.0,100,-99.99,,,-99.99,,2013-05-25 07:11:00,
2013-05-25 03:21:00,39.0,39.0,-100.00,SW,230,2.0,4.0,100,-99.99,,,-99.99,,2013-05-25 07:21:00,
2013-05-25 03:31:00,39.0,38.0,-100.00,SW,230,2.0,2.0,99,-99.99,,,-99.99,,2013-05-25 07:31:00,
2013-05-25 03:41:00,39.0,38.0,-100.00,SW,230,2.0,2.0,99,-99.99,,,-99.99,,2013-05-25 07:41:00,
2013-05-25 03:52:00,38.0,38.0,-100.00,North,0,0.0,2.0,100,-99.99,,,-99.99,,2013-05-25 07:52:00,
2013-05-25 04:01:00,38.0,38.0,-100.00,North,0,0.0,0.0,100,-99.99,,,-99.99,,2013-05-25 08:01:00,
2013-05-25 04:11:00,37.0,37.0,-100.00,North,0,0.0,2.0,100,-99.99,,,-99.99,,2013-05-25 08:11:00,
2013-05-25 04:22:00,37.0,37.0,-100.00,South,190,2.0,4.0,100,-99.99,,,-99.99,,2013-05-25 08:22:00,
2013-05-25 04:31:00,37.0,37.0,-100.00,SSE,150,2.0,4.0,100,-99.99,,,-99.99,,2013-05-25 08:31:00,
2013-05-25 04:41:00,37.0,37.0,-100.00,SSE,150,2.0,4.0,99,-99.99,,,-99.99,,2013-05-25 08:41:00,
2013-05-25 04:51:00,37.0,37.0,-100.00,East,100,2.0,2.0,99,-99.99,,,-99.99,,2013-05-25 08:51:00,
2013-05-25 05:01:00,38.0,38.0,-100.00,ESE,110,2.0,4.0,100,-99.99,,,-99.99,,2013-05-25 09:01:00,
2013-05-25 05:11:00,38.0,38.0,-100.00,North,0,0.0,2.0,100,-99.99,,,-99.99,,2013-05-25 09:11:00,
2013-05-25 05:21:00,38.0,38.0,-100.00,North,0,0.0,2.0,100,-99.99,,,-99.99,,2013-05-25 09:21:00,
2013-05-25 05:33:00,38.0,38.0,-100.00,SW,220,2.0,2.0,100,-99.99,,,-99.99,,2013-05-25 09:33:00,
2013-05-25 05:42:00,37.0,37.0,-100.00,SW,230,2.0,2.0,100,-99.99,,,-99.99,,2013-05-25 09:42:00,
2013-05-25 05:52:00,37.0,37.0,-100.00,SW,230,2.0,4.0,100,-99.99,,,-99.99,,2013-05-25 09:52:00,
2013-05-25 06:02:00,38.0,38.0,-100.00,North,0,0.0,0.0,100,-99.99,,,-99.99,,2013-05-25 10:02:00,
2013-05-25 06:12:00,37.0,37.0,-100.00,SSW,210,2.0,2.0,100,-99.99,,,-99.99,,2013-05-25 10:12:00,
2013-05-25 06:22:00,37.0,37.0,-100.00,SSW,210,2.0,2.0,100,-99.99,,,-99.99,,2013-05-25 10:22:00,
2013-05-25 06:32:00,37.0,37.0,-100.00,North,0,0.0,2.0,100,-99.99,,,-99.99,,2013-05-25 10:32:00,
2013-05-25 06:42:00,37.0,37.0,-100.00,North,0,0.0,2.0,100,-99.99,,,-99.99,,2013-05-25 10:42:00,
2013-05-25 06:52:00,38.0,38.0,-100.00,SE,130,2.0,2.0,97,-99.99,,,-99.99,,2013-05-25 10:52:00,
2013-05-25 07:02:00,38.0,38.0,-100.00,SE,140,2.0,2.0,97,-99.99,,,-99.99,,2013-05-25 11:02:00,
2013-05-25 07:11:00,38.0,37.0,-100.00,SE,140,2.0,4.0,96,-99.99,,,-99.99,,2013-05-25 11:11:00,
2013-05-25 07:21:00,38.0,38.0,-100.00,ESE,120,4.0,7.0,97,-99.99,,,-99.99,,2013-05-25 11:21:00,
2013-05-25 07:32:00,38.0,38.0,-100.00,ESE,120,4.0,7.0,97,-99.99,,,-99.99,,2013-05-25 11:32:00,
2013-05-25 07:41:00,38.0,37.0,-100.00,ESE,110,7.0,9.0,95,-99.99,,,-99.99,,2013-05-25 11:41:00,
2013-05-25 07:52:00,39.0,36.0,-100.00,ESE,120,7.0,9.0,91,-99.99,,,-99.99,,2013-05-25 11:52:00,
2013-05-25 08:01:00,39.0,37.0,-100.00,ESE,120,7.0,9.0,93,-99.99,,,-99.99,,2013-05-25 12:01:00,
2013-05-25 08:11:00,39.0,38.0,-100.00,SSE,160,4.0,7.0,95,-99.99,,,-99.99,,2013-05-25 12:11:00,
2013-05-25 08:21:00,39.0,38.0,-100.00,SSE,160,4.0,7.0,95,-99.99,,,-99.99,,2013-05-25 12:21:00,
2013-05-25 08:32:00,39.0,38.0,-100.00,SSE,160,4.0,7.0,94,-99.99,,,-99.99,,2013-05-25 12:32:00,
2013-05-25 08:41:00,39.0,37.0,-100.00,SE,140,7.0,9.0,92,-99.99,,,-99.99,,2013-05-25 12:41:00,
2013-05-25 08:52:00,39.0,37.0,-100.00,ESE,120,7.0,9.0,92,-99.99,,,-99.99,,2013-05-25 12:52:00,
2013-05-25 09:01:00,40.0,37.0,-100.00,SE,130,7.0,9.0,91,-99.99,,,-99.99,,2013-05-25 13:01:00,
2013-05-25 09:11:00,40.0,37.0,-100.00,SSE,150,4.0,7.0,90,-99.99,,,-99.99,,2013-05-25 13:11:00,
2013-05-25 09:21:00,40.0,37.0,-100.00,SSE,150,4.0,4.0,89,-99.99,,,-99.99,,2013-05-25 13:21:00,
2013-05-25 09:32:00,40.0,37.0,-100.00,SSE,160,4.0,4.0,87,-99.99,,,-99.99,,2013-05-25 13:32:00,
2013-05-25 09:42:00,41.0,37.0,-100.00,SSE,150,4.0,7.0,85,-99.99,,,-99.99,,2013-05-25 13:42:00,
2013-05-25 09:52:00,42.0,36.0,-100.00,SE,130,7.0,7.0,80,-99.99,,,-99.99,,2013-05-25 13:52:00,
2013-05-25 10:01:00,42.0,37.0,-100.00,ESE,120,4.0,7.0,82,-99.99,,,-99.99,,2013-05-25 14:01:00,
2013-05-25 10:11:00,43.0,38.0,-100.00,East,80,2.0,4.0,85,-99.99,,,-99.99,,2013-05-25 14:11:00,
2013-05-25 10:22:00,43.0,38.0,-100.00,East,80,2.0,4.0,85,-99.99,,,-99.99,,2013-05-25 14:22:00,
2013-05-25 10:32:00,43.0,38.0,-100.00,NE,50,2.0,7.0,82,-99.99,,,-99.99,,2013-05-25 14:32:00,
2013-05-25 10:41:00,41.0,39.0,-100.00,NNE,20,4.0,7.0,90,-99.99,,,-99.99,,2013-05-25 14:41:00,
2013-05-25 10:52:00,41.0,39.0,-100.00,NNE,20,4.0,7.0,90,-99.99,,,-99.99,,2013-05-25 14:52:00,
2013-05-25 11:01:00,41.0,39.0,-100.00,NNE,20,4.0,7.0,91,-99.99,,,-99.99,,2013-05-25 15:01:00,
2013-05-25 11:11:00,41.0,40.0,-100.00,NNE,20,7.0,7.0,94,-99.99,,,-99.99,,2013-05-25 15:11:00,
2013-05-25 11:22:00,41.0,39.0,-100.00,NNE,20,4.0,7.0,91,-99.99,,,-99.99,,2013-05-25 15:22:00,
2013-05-25 11:32:00,41.0,38.0,-100.00,NNE,20,4.0,4.0,87,-99.99,,,-99.99,,2013-05-25 15:32:00,
2013-05-25 11:43:00,42.0,38.0,-100.00,North,350,2.0,4.0,88,-99.99,,,-99.99,,2013-05-25 15:43:00,
2013-05-25 11:53:00,42.0,38.0,-100.00,North,350,2.0,4.0,88,-99.99,,,-99.99,,2013-05-25 15:53:00,
2013-05-25 12:02:00,42.0,39.0,-100.00,North,350,4.0,7.0,90,-99.99,,,-99.99,,2013-05-25 16:02:00,
2013-05-25 12:12:00,42.0,40.0,-100.00,NNW,330,4.0,4.0,93,-99.99,,,-99.99,,2013-05-25 16:12:00,
2013-05-25 12:22:00,42.0,40.0,-100.00,NW,320,7.0,9.0,91,-99.99,,,-99.99,,2013-05-25 16:22:00,
2013-05-25 12:32:00,42.0,40.0,-100.00,NW,320,7.0,9.0,91,-99.99,,,-99.99,,2013-05-25 16:32:00,
2013-05-25 12:42:00,42.0,40.0,-100.00,NNW,340,7.0,9.0,92,-99.99,,,-99.99,,2013-05-25 16:42:00,
2013-05-25 12:52:00,42.0,40.0,-100.00,NNW,340,7.0,9.0,92,-99.99,,,-99.99,,2013-05-25 16:52:00,
2013-05-25 13:02:00,42.0,40.0,-100.00,NNW,340,9.0,11.0,93,-99.99,,,-99.99,,2013-05-25 17:02:00,
2013-05-25 13:11:00,42.0,40.0,-100.00,North,350,9.0,11.0,91,-99.99,,,-99.99,,2013-05-25 17:11:00,
2013-05-25 13:22:00,42.0,41.0,-100.00,NNW,340,7.0,9.0,93,-99.99,,,-99.99,,2013-05-25 17:22:00,
2013-05-25 13:32:00,43.0,41.0,-100.00,NNW,340,7.0,9.0,92,-99.99,,,-99.99,,2013-05-25 17:32:00,
2013-05-25 13:41:00,43.0,41.0,-100.00,NW,310,9.0,9.0,95,-99.99,,,-99.99,,2013-05-25 17:41:00,
2013-05-25 13:52:00,43.0,41.0,-100.00,NW,310,9.0,9.0,95,-99.99,,,-99.99,,2013-05-25 17:52:00,
2013-05-25 14:01:00,42.0,42.0,-100.00,NW,310,9.0,9.0,97,-99.99,,,-99.99,,2013-05-25 18:01:00,
2013-05-25 14:11:00,42.0,42.0,-100.00,NNW,330,9.0,9.0,97,-99.99,,,-99.99,,2013-05-25 18:11:00,
2013-05-25 14:21:00,42.0,42.0,-100.00,NNW,340,9.0,11.0,97,-99.99,,,-99.99,,2013-05-25 18:21:00,
2013-05-25 14:31:00,42.0,42.0,-100.00,NNW,340,9.0,11.0,97,-99.99,,,-99.99,,2013-05-25 18:31:00,
2013-05-25 14:41:00,43.0,42.0,-100.00,NNW,340,9.0,11.0,97,-99.99,,,-99.99,,2013-05-25 18:41:00,
2013-05-25 14:51:00,43.0,42.0,-100.00,NNW,340,9.0,11.0,97,-99.99,,,-99.99,,2013-05-25 18:51:00,
2013-05-25 15:01:00,43.0,42.0,-100.00,NNW,330,11.0,13.0,95,-99.99,,,-99.99,,2013-05-25 19:01:00,
2013-05-25 15:11:00,43.0,42.0,-100.00,NW,320,9.0,11.0,95,-99.99,,,-99.99,,2013-05-25 19:11:00,
2013-05-25 15:21:00,43.0,42.0,-100.00,NW,320,9.0,9.0,96,-99.99,,,-99.99,,2013-05-25 19:21:00,
2013-05-25 15:31:00,43.0,42.0,-100.00,NNW,330,9.0,9.0,95,-99.99,,,-99.99,,2013-05-25 19:31:00,
2013-05-25 15:41:00,43.0,42.0,-100.00,WNW,300,4.0,7.0,93,-99.99,,,-99.99,,2013-05-25 19:41:00,
2013-05-25 15:52:00,43.0,42.0,-100.00,WNW,300,4.0,7.0,93,-99.99,,,-99.99,,2013-05-25 19:52:00,
2013-05-25 16:02:00,43.0,41.0,-100.00,NNW,340,4.0,7.0,92,-99.99,,,-99.99,,2013-05-25 20:02:00,
2013-05-25 16:11:00,43.0,41.0,-100.00,WNW,300,4.0,7.0,91,-99.99,,,-99.99,,2013-05-25 20:11:00,
2013-05-25 16:21:00,44.0,40.0,-100.00,WNW,300,7.0,7.0,88,-99.99,,,-99.99,,2013-05-25 20:21:00,
2013-05-25 16:32:00,44.0,40.0,-100.00,NNW,330,4.0,7.0,88,-99.99,,,-99.99,,2013-05-25 20:32:00,
2013-05-25 16:41:00,44.0,41.0,-100.00,NW,310,2.0,2.0,90,-99.99,,,-99.99,,2013-05-25 20:41:00,
2013-05-25 16:51:00,44.0,41.0,-100.00,NW,320,2.0,2.0,87,-99.99,,,-99.99,,2013-05-25 20:51:00,
2013-05-25 17:01:00,44.0,40.0,-100.00,NW,310,2.0,4.0,85,-99.99,,,-99.99,,2013-05-25 21:01:00,
2013-05-25 17:11:00,45.0,41.0,-100.00,North,0,0.0,2.0,86,-99.99,,,-99.99,,2013-05-25 21:11:00,
2013-05-25 17:21:00,44.0,41.0,-100.00,WNW,290,4.0,7.0,89,-99.99,,,-99.99,,2013-05-25 21:21:00,
2013-05-25 17:32:00,44.0,41.0,-100.00,WNW,290,4.0,7.0,89,-99.99,,,-99.99,,2013-05-25 21:32:00,
2013-05-25 17:42:00,44.0,41.0,-100.00,West,280,2.0,4.0,89,-99.99,,,-99.99,,2013-05-25 21:42:00,
2013-05-25 17:53:00,45.0,41.0,-100.00,North,0,0.0,2.0,87,-99.99,,,-99.99,,2013-05-25 21:53:00,
2013-05-25 18:02:00,44.0,42.0,-100.00,NNW,340,2.0,4.0,90,-99.99,,,-99.99,,2013-05-25 22:02:00,
2013-05-25 18:12:00,45.0,41.0,-100.00,WNW,300,2.0,4.0,87,-99.99,,,-99.99,,2013-05-25 22:12:00,
2013-05-25 18:22:00,45.0,41.0,-100.00,WNW,300,2.0,4.0,87,-99.99,,,-99.99,,2013-05-25 22:22:00,
2013-05-25 18:32:00,45.0,41.0,-100.00,WNW,300,4.0,4.0,87,-99.99,,,-99.99,,2013-05-25 22:32:00,
2013-05-25 18:42:00,45.0,42.0,-100.00,WNW,300,4.0,4.0,88,-99.99,,,-99.99,,2013-05-25 22:42:00,
2013-05-25 18:52:00,45.0,41.0,-100.00,NNW,330,4.0,7.0,84,-99.99,,,-99.99,,2013-05-25 22:52:00,
2013-05-25 19:02:00,45.0,41.0,-100.00,NNW,330,4.0,7.0,84,-99.99,,,-99.99,,2013-05-25 23:02:00,
2013-05-25 19:11:00,45.0,40.0,-100.00,NNW,330,7.0,7.0,81,-99.99,,,-99.99,,2013-05-25 23:11:00,
2013-05-25 19:21:00,46.0,40.0,-100.00,NW,310,4.0,7.0,80,-99.99,,,-99.99,,2013-05-25 23:21:00,
2013-05-25 19:31:00,46.0,40.0,-100.00,NW,310,4.0,7.0,80,-99.99,,,-99.99,,2013-05-25 23:31:00,
2013-05-25 19:41:00,46.0,39.0,-100.00,WSW,240,2.0,4.0,78,-99.99,,,-99.99,,2013-05-25 23:41:00,
2013-05-25 19:52:00,48.0,37.0,-100.00,NW,320,4.0,4.0,65,-99.99,,,-99.99,,2013-05-25 23:52:00,
2013-05-25 20:01:00,47.0,38.0,-100.00,WSW,250,4.0,7.0,68,-99.99,,,-99.99,,2013-05-26 00:01:00,
2013-05-25 20:11:00,46.0,39.0,-100.00,West,270,4.0,7.0,75,-99.99,,,-99.99,,2013-05-26 00:11:00,
2013-05-25 20:21:00,46.0,39.0,-100.00,West,270,4.0,7.0,75,-99.99,,,-99.99,,2013-05-26 00:21:00,
2013-05-25 20:31:00,45.0,40.0,-100.00,West,280,4.0,7.0,80,-99.99,,,-99.99,,2013-05-26 00:31:00,
2013-05-25 20:42:00,45.0,40.0,-100.00,West,280,4.0,4.0,82,-99.99,,,-99.99,,2013-05-26 00:42:00,
2013-05-25 20:52:00,45.0,40.0,-100.00,WNW,290,4.0,4.0,84,-99.99,,,-99.99,,2013-05-26 00:52:00,
2013-05-25 21:01:00,44.0,40.0,-100.00,WNW,300,4.0,7.0,84,-99.99,,,-99.99,,2013-05-26 01:01:00,
2013-05-25 21:11:00,44.0,40.0,-100.00,WNW,290,4.0,7.0,87,-99.99,,,-99.99,,2013-05-26 01:11:00,
2013-05-25 21:21:00,44.0,40.0,-100.00,WNW,290,4.0,7.0,87,-99.99,,,-99.99,,2013-05-26 01:21:00,
2013-05-25 21:32:00,44.0,40.0,-100.00,West,260,4.0,4.0,88,-99.99,,,-99.99,,2013-05-26 01:32:00,
2013-05-25 21:41:00,43.0,41.0,-100.00,WSW,250,2.0,4.0,90,-99.99,,,-99.99,,2013-05-26 01:41:00,
2013-05-25 21:52:00,43.0,40.0,-100.00,West,260,2.0,4.0,89,-99.99,,,-99.99,,2013-05-26 01:52:00,
2013-05-25 22:02:00,43.0,40.0,-100.00,West,260,2.0,4.0,88,-99.99,,,-99.99,,2013-05-26 02:02:00,
2013-05-25 22:11:00,44.0,38.0,-100.00,WSW,240,2.0,4.0,79,-99.99,,,-99.99,,2013-05-26 02:11:00,
2013-05-25 22:21:00,44.0,38.0,-100.00,WSW,240,2.0,4.0,79,-99.99,,,-99.99,,2013-05-26 02:21:00,
2013-05-25 22:32:00,43.0,39.0,-100.00,SW,220,2.0,4.0,84,-99.99,,,-99.99,,2013-05-26 02:32:00,
2013-05-25 22:41:00,44.0,36.0,-100.00,South,180,4.0,4.0,72,-99.99,,,-99.99,,2013-05-26 02:41:00,
2013-05-25 22:52:00,45.0,35.0,-100.00,SW,230,4.0,4.0,67,-99.99,,,-99.99,,2013-05-26 02:52:00,
2013-05-25 23:01:00,44.0,36.0,-100.00,SSW,210,4.0,7.0,74,-99.99,,,-99.99,,2013-05-26 03:01:00,
2013-05-25 23:11:00,43.0,38.0,-100.00,SSW,210,4.0,4.0,83,-99.99,,,-99.99,,2013-05-26 03:11:00,
2013-05-25 23:21:00,43.0,39.0,-100.00,SSW,200,2.0,4.0,86,-99.99,,,-99.99,,2013-05-26 03:21:00,
2013-05-25 23:32:00,43.0,39.0,-100.00,SSW,200,2.0,4.0,86,-99.99,,,-99.99,,2013-05-26 03:32:00,
2013-05-25 23:42:00,43.0,38.0,-100.00,SW,230,2.0,4.0,84,-99.99,,,-99.99,,2013-05-26 03:42:00,
2013-05-25 23:53:00,42.0,40.0,-100.00,SE,140,2.0,4.0,91,-99.99,,,-99.99,,2013-05-26 03:53:00,